{"data":{"norad_id":67208,"epoch":"2026-05-24T19:27:15.826176Z","epoch_age_seconds":101670,"freshness":"FRESH","line1":"1 67208U 25304S   26144.81059984  .00001620  00000+0  14353-3 0  9995","line2":"2 67208  70.0023 342.6613 0002376 268.0389  92.0498 14.98331899 25280","mean_motion":14.98331899,"eccentricity":0.0002376,"inclination_deg":70.0023,"raan_deg":342.6613,"arg_perigee_deg":268.0389,"mean_anomaly_deg":92.0498,"bstar":0.00014353,"rev_number":2528,"period_min":96.106877318775,"perigee_km":570.39865401418,"apogee_km":573.70138288535,"semimajor_km":6950.1870184498,"source":"CELESTRAK","updated_at":"2026-05-25T13:38:21.511551Z"}}